Time,TemperatureF,DewpointF,PressureIn,WindDirection,WindDirectionDegrees,WindSpeedMPH,WindSpeedGustMPH,Humidity,HourlyPrecipIn,Conditions,Clouds,dailyrainin,SolarRadiationWatts/m^2,SoftwareType,DateUTC
2013-08-01 00:01:00,71.0,65.2,30.04,SSW,195,8.0,11.0,82,0.00,,,0.00,0,HR-IXPWINDi_r2_v1.2.,2013-08-01 04:01:00,
2013-08-01 00:06:00,71.0,65.5,30.04,SSW,192,7.0,11.0,83,0.00,,,0.00,0,HR-IXPWINDi_r2_v1.2.,2013-08-01 04:06:00,
2013-08-01 00:11:00,70.9,65.4,30.04,South,190,11.0,12.0,83,0.00,,,0.00,0,HR-IXPWINDi_r2_v1.2.,2013-08-01 04:11:00,
2013-08-01 00:17:00,70.9,65.4,30.04,SSW,196,12.0,15.0,83,0.00,,,0.00,0,HR-IXPWINDi_r2_v1.2.,2013-08-01 04:17:00,
2013-08-01 00:22:00,70.8,65.3,30.04,South,172,12.0,16.0,83,0.00,,,0.00,0,HR-IXPWINDi_r2_v1.2.,2013-08-01 04:22:00,
2013-08-01 00:27:00,70.7,64.9,30.04,South,190,12.0,16.0,82,0.00,,,0.00,0,HR-IXPWINDi_r2_v1.2.,2013-08-01 04:27:00,
2013-08-01 00:32:00,70.7,64.9,30.04,SSW,200,9.0,15.0,82,0.00,,,0.00,0,HR-IXPWINDi_r2_v1.2.,2013-08-01 04:32:00,
2013-08-01 00:38:00,70.7,64.9,30.04,SSW,193,10.0,13.0,82,0.00,,,0.00,0,HR-IXPWINDi_r2_v1.2.,2013-08-01 04:38:00,
2013-08-01 00:43:00,70.6,65.1,30.04,South,188,10.0,13.0,83,0.00,,,0.00,0,HR-IXPWINDi_r2_v1.2.,2013-08-01 04:43:00,
2013-08-01 00:48:00,70.5,65.0,30.04,SSW,200,13.0,14.0,83,0.00,,,0.00,0,HR-IXPWINDi_r2_v1.2.,2013-08-01 04:48:00,
2013-08-01 00:54:00,70.3,64.8,30.04,SSW,201,9.0,14.0,83,0.00,,,0.00,0,HR-IXPWINDi_r2_v1.2.,2013-08-01 04:54:00,
2013-08-01 00:59:00,70.2,64.7,30.04,South,191,9.0,13.0,83,0.00,,,0.00,0,HR-IXPWINDi_r2_v1.2.,2013-08-01 04:59:00,
2013-08-01 01:04:00,70.1,65.0,30.03,South,186,9.0,13.0,84,0.00,,,0.00,0,HR-IXPWINDi_r2_v1.2.,2013-08-01 05:04:00,
2013-08-01 01:09:00,70.0,64.9,30.03,SSW,194,8.0,10.0,84,0.00,,,0.00,0,HR-IXPWINDi_r2_v1.2.,2013-08-01 05:09:00,
2013-08-01 01:14:00,69.9,65.1,30.03,SSW,202,10.0,11.0,85,0.00,,,0.00,0,HR-IXPWINDi_r2_v1.2.,2013-08-01 05:14:00,
2013-08-01 01:19:00,69.8,64.7,30.03,South,182,9.0,12.0,84,0.00,,,0.00,0,HR-IXPWINDi_r2_v1.2.,2013-08-01 05:19:00,
2013-08-01 01:24:00,69.7,64.6,30.03,SSW,210,8.0,12.0,84,0.00,,,0.00,0,HR-IXPWINDi_r2_v1.2.,2013-08-01 05:24:00,
2013-08-01 01:30:00,69.7,64.9,30.03,SSW,198,9.0,11.0,85,0.00,,,0.00,0,HR-IXPWINDi_r2_v1.2.,2013-08-01 05:30:00,
2013-08-01 01:35:00,69.5,64.7,30.03,SSW,204,7.0,11.0,85,0.00,,,0.00,0,HR-IXPWINDi_r2_v1.2.,2013-08-01 05:35:00,
2013-08-01 01:40:00,69.5,64.7,30.03,SW,217,8.0,10.0,85,0.00,,,0.00,0,HR-IXPWINDi_r2_v1.2.,2013-08-01 05:40:00,
2013-08-01 01:46:00,69.5,65.1,30.03,SSW,198,7.0,9.0,86,0.00,,,0.00,0,HR-IXPWINDi_r2_v1.2.,2013-08-01 05:46:00,
2013-08-01 01:51:00,69.4,65.0,30.03,SSW,202,7.0,9.0,86,0.00,,,0.00,0,HR-IXPWINDi_r2_v1.2.,2013-08-01 05:51:00,
2013-08-01 01:56:00,69.5,65.1,30.03,SSW,200,5.0,8.0,86,0.00,,,0.00,0,HR-IXPWINDi_r2_v1.2.,2013-08-01 05:56:00,
2013-08-01 02:01:00,69.5,64.7,30.03,SSW,203,5.0,8.0,85,0.00,,,0.00,0,HR-IXPWINDi_r2_v1.2.,2013-08-01 06:01:00,
2013-08-01 02:06:00,69.6,64.8,30.02,SSW,201,7.0,7.0,85,0.00,,,0.00,0,HR-IXPWINDi_r2_v1.2.,2013-08-01 06:06:00,
2013-08-01 02:12:00,69.6,64.8,30.02,SSW,192,7.0,8.0,85,0.00,,,0.00,0,HR-IXPWINDi_r2_v1.2.,2013-08-01 06:12:00,
2013-08-01 02:17:00,69.6,64.8,30.02,SSW,194,6.0,8.0,85,0.00,,,0.00,0,HR-IXPWINDi_r2_v1.2.,2013-08-01 06:17:00,
2013-08-01 02:22:00,69.6,64.8,30.02,SSW,198,6.0,8.0,85,0.00,,,0.00,0,HR-IXPWINDi_r2_v1.2.,2013-08-01 06:22:00,
2013-08-01 02:28:00,69.4,64.6,30.02,SSW,192,7.0,7.0,85,0.00,,,0.00,0,HR-IXPWINDi_r2_v1.2.,2013-08-01 06:28:00,
2013-08-01 02:33:00,69.4,64.6,30.02,SSW,194,6.0,7.0,85,0.00,,,0.00,0,HR-IXPWINDi_r2_v1.2.,2013-08-01 06:33:00,
2013-08-01 02:38:00,69.3,64.5,30.01,SSW,197,6.0,7.0,85,0.00,,,0.00,0,HR-IXPWINDi_r2_v1.2.,2013-08-01 06:38:00,
2013-08-01 02:44:00,69.3,64.5,30.01,SSW,197,7.0,9.0,85,0.00,,,0.00,0,HR-IXPWINDi_r2_v1.2.,2013-08-01 06:44:00,
2013-08-01 02:49:00,69.3,64.5,30.01,South,190,8.0,10.0,85,0.00,,,0.00,0,HR-IXPWINDi_r2_v1.2.,2013-08-01 06:49:00,
2013-08-01 02:54:00,69.2,64.4,30.01,South,189,8.0,10.0,85,0.00,,,0.00,0,HR-IXPWINDi_r2_v1.2.,2013-08-01 06:54:00,
2013-08-01 02:59:00,69.2,64.4,30.01,SSW,204,10.0,11.0,85,0.00,,,0.00,0,HR-IXPWINDi_r2_v1.2.,2013-08-01 06:59:00,
2013-08-01 03:04:00,69.0,64.2,30.01,South,188,8.0,11.0,85,0.00,,,0.00,0,HR-IXPWINDi_r2_v1.2.,2013-08-01 07:04:00,
2013-08-01 03:10:00,68.9,64.5,30.01,SSW,192,8.0,11.0,86,0.00,,,0.00,0,HR-IXPWINDi_r2_v1.2.,2013-08-01 07:10:00,
2013-08-01 03:15:00,68.7,64.3,30.01,SSW,202,8.0,11.0,86,0.00,,,0.00,0,HR-IXPWINDi_r2_v1.2.,2013-08-01 07:15:00,
2013-08-01 03:20:00,68.6,64.2,30.01,SSW,204,8.0,11.0,86,0.00,,,0.00,0,HR-IXPWINDi_r2_v1.2.,2013-08-01 07:20:00,
2013-08-01 03:25:00,68.5,64.1,30.00,SSW,207,7.0,10.0,86,0.00,,,0.00,0,HR-IXPWINDi_r2_v1.2.,2013-08-01 07:25:00,
2013-08-01 03:30:00,68.6,64.2,30.00,SSW,196,7.0,10.0,86,0.00,,,0.00,0,HR-IXPWINDi_r2_v1.2.,2013-08-01 07:30:00,
2013-08-01 03:36:00,68.5,64.1,30.00,SSW,194,7.0,9.0,86,0.00,,,0.00,0,HR-IXPWINDi_r2_v1.2.,2013-08-01 07:36:00,
2013-08-01 03:41:00,68.5,64.1,30.00,SSW,207,9.0,9.0,86,0.00,,,0.00,0,HR-IXPWINDi_r2_v1.2.,2013-08-01 07:41:00,
2013-08-01 03:46:00,68.5,64.1,30.00,South,190,9.0,9.0,86,0.00,,,0.00,0,HR-IXPWINDi_r2_v1.2.,2013-08-01 07:46:00,
2013-08-01 03:51:00,68.4,64.0,30.00,South,186,8.0,9.0,86,0.00,,,0.00,0,HR-IXPWINDi_r2_v1.2.,2013-08-01 07:51:00,
2013-08-01 03:56:00,68.3,63.9,30.00,SSW,198,7.0,9.0,86,0.00,,,0.00,0,HR-IXPWINDi_r2_v1.2.,2013-08-01 07:56:00,
2013-08-01 04:01:00,68.3,63.9,30.00,South,181,6.0,9.0,86,0.00,,,0.00,0,HR-IXPWINDi_r2_v1.2.,2013-08-01 08:01:00,
2013-08-01 04:07:00,68.3,63.9,30.00,SSW,194,7.0,9.0,86,0.00,,,0.00,0,HR-IXPWINDi_r2_v1.2.,2013-08-01 08:07:00,
2013-08-01 04:12:00,68.3,63.9,30.00,SSW,196,8.0,10.0,86,0.00,,,0.00,0,HR-IXPWINDi_r2_v1.2.,2013-08-01 08:12:00,
2013-08-01 04:17:00,68.3,63.9,30.00,SSW,202,7.0,10.0,86,0.00,,,0.00,0,HR-IXPWINDi_r2_v1.2.,2013-08-01 08:17:00,
2013-08-01 04:22:00,68.3,63.9,30.00,SSW,200,7.0,10.0,86,0.00,,,0.00,0,HR-IXPWINDi_r2_v1.2.,2013-08-01 08:22:00,
2013-08-01 04:27:00,68.3,63.9,30.01,SSW,196,7.0,10.0,86,0.00,,,0.00,0,HR-IXPWINDi_r2_v1.2.,2013-08-01 08:27:00,
2013-08-01 04:32:00,68.3,63.9,30.00,SSW,201,6.0,9.0,86,0.00,,,0.00,0,HR-IXPWINDi_r2_v1.2.,2013-08-01 08:32:00,
2013-08-01 04:38:00,68.3,64.2,30.00,South,190,6.0,8.0,87,0.00,,,0.00,0,HR-IXPWINDi_r2_v1.2.,2013-08-01 08:38:00,
2013-08-01 04:43:00,68.2,64.1,30.00,SSW,192,7.0,8.0,87,0.00,,,0.00,0,HR-IXPWINDi_r2_v1.2.,2013-08-01 08:43:00,
2013-08-01 04:48:00,68.2,64.4,30.00,SSW,200,6.0,8.0,88,0.00,,,0.00,0,HR-IXPWINDi_r2_v1.2.,2013-08-01 08:48:00,
2013-08-01 04:53:00,68.0,64.2,30.00,South,182,7.0,8.0,88,0.00,,,0.00,0,HR-IXPWINDi_r2_v1.2.,2013-08-01 08:53:00,
2013-08-01 04:58:00,67.9,64.1,30.00,South,178,6.0,8.0,88,0.00,,,0.00,0,HR-IXPWINDi_r2_v1.2.,2013-08-01 08:58:00,
2013-08-01 05:04:00,67.9,64.1,30.00,SSW,201,6.0,9.0,88,0.00,,,0.00,0,HR-IXPWINDi_r2_v1.2.,2013-08-01 09:04:00,
2013-08-01 05:09:00,67.8,64.1,30.00,SSW,209,4.0,9.0,88,0.00,,,0.00,0,HR-IXPWINDi_r2_v1.2.,2013-08-01 09:09:00,
2013-08-01 05:14:00,67.8,63.7,30.00,South,180,7.0,9.0,87,0.00,,,0.00,0,HR-IXPWINDi_r2_v1.2.,2013-08-01 09:14:00,
2013-08-01 05:19:00,67.8,64.1,30.01,SSW,205,6.0,8.0,88,0.00,,,0.00,0,HR-IXPWINDi_r2_v1.2.,2013-08-01 09:19:00,
2013-08-01 05:24:00,67.8,64.1,30.01,SSW,196,6.0,8.0,88,0.00,,,0.00,0,HR-IXPWINDi_r2_v1.2.,2013-08-01 09:24:00,
2013-08-01 05:29:00,67.7,64.0,30.01,South,191,6.0,7.0,88,0.00,,,0.00,0,HR-IXPWINDi_r2_v1.2.,2013-08-01 09:29:00,
2013-08-01 05:34:00,67.7,64.0,30.01,South,184,6.0,9.0,88,0.00,,,0.00,0,HR-IXPWINDi_r2_v1.2.,2013-08-01 09:34:00,
2013-08-01 05:39:00,67.7,64.0,30.01,South,185,6.0,9.0,88,0.00,,,0.00,0,HR-IXPWINDi_r2_v1.2.,2013-08-01 09:39:00,
2013-08-01 05:44:00,67.7,64.0,30.01,SSW,195,7.0,8.0,88,0.00,,,0.00,0,HR-IXPWINDi_r2_v1.2.,2013-08-01 09:44:00,
2013-08-01 05:49:00,67.8,64.1,30.01,SSW,202,7.0,9.0,88,0.00,,,0.00,7,HR-IXPWINDi_r2_v1.2.,2013-08-01 09:49:00,
2013-08-01 05:55:00,67.7,64.0,30.01,SSW,199,7.0,9.0,88,0.00,,,0.00,9,HR-IXPWINDi_r2_v1.2.,2013-08-01 09:55:00,
2013-08-01 06:00:00,67.7,64.0,30.00,South,190,4.0,9.0,88,0.00,,,0.00,12,HR-IXPWINDi_r2_v1.2.,2013-08-01 10:00:00,
2013-08-01 06:05:00,67.7,64.0,30.00,SSW,196,6.0,9.0,88,0.00,,,0.00,18,HR-IXPWINDi_r2_v1.2.,2013-08-01 10:05:00,
2013-08-01 06:11:00,67.6,63.9,30.00,South,189,6.0,9.0,88,0.00,,,0.00,23,HR-IXPWINDi_r2_v1.2.,2013-08-01 10:11:00,
2013-08-01 06:16:00,67.7,64.3,30.00,South,190,7.0,9.0,89,0.00,,,0.00,28,HR-IXPWINDi_r2_v1.2.,2013-08-01 10:16:00,
2013-08-01 06:21:00,67.7,64.3,30.00,South,190,5.0,8.0,89,0.00,,,0.00,37,HR-IXPWINDi_r2_v1.2.,2013-08-01 10:21:00,
2013-08-01 06:26:00,67.7,64.0,30.00,SSW,194,5.0,8.0,88,0.00,,,0.00,46,HR-IXPWINDi_r2_v1.2.,2013-08-01 10:26:00,
2013-08-01 06:32:00,67.7,64.3,30.00,SSW,208,4.0,7.0,89,0.00,,,0.00,58,HR-IXPWINDi_r2_v1.2.,2013-08-01 10:32:00,
2013-08-01 06:37:00,67.7,64.3,30.00,SSW,196,6.0,7.0,89,0.00,,,0.00,81,HR-IXPWINDi_r2_v1.2.,2013-08-01 10:37:00,
2013-08-01 06:42:00,67.7,64.3,30.00,SSW,192,5.0,7.0,89,0.00,,,0.00,88,HR-IXPWINDi_r2_v1.2.,2013-08-01 10:42:00,
2013-08-01 06:47:00,67.8,64.1,30.00,SSW,194,5.0,6.0,88,0.00,,,0.00,90,HR-IXPWINDi_r2_v1.2.,2013-08-01 10:47:00,
2013-08-01 06:52:00,67.9,64.1,30.00,SSW,198,5.0,7.0,88,0.00,,,0.00,156,HR-IXPWINDi_r2_v1.2.,2013-08-01 10:52:00,
2013-08-01 06:58:00,68.1,64.3,30.00,SSW,194,6.0,7.0,88,0.00,,,0.00,216,HR-IXPWINDi_r2_v1.2.,2013-08-01 10:58:00,
2013-08-01 07:03:00,68.1,64.0,30.00,SSW,195,6.0,7.0,87,0.00,,,0.00,237,HR-IXPWINDi_r2_v1.2.,2013-08-01 11:03:00,
2013-08-01 07:08:00,68.3,64.2,30.00,South,184,6.0,8.0,87,0.00,,,0.00,241,HR-IXPWINDi_r2_v1.2.,2013-08-01 11:08:00,
2013-08-01 07:13:00,68.4,64.3,30.01,South,182,5.0,8.0,87,0.00,,,0.00,236,HR-IXPWINDi_r2_v1.2.,2013-08-01 11:13:00,
2013-08-01 07:18:00,68.5,64.1,30.01,SSW,192,6.0,8.0,86,0.00,,,0.00,243,HR-IXPWINDi_r2_v1.2.,2013-08-01 11:18:00,
2013-08-01 07:23:00,68.7,64.6,30.01,South,185,7.0,7.0,87,0.00,,,0.00,271,HR-IXPWINDi_r2_v1.2.,2013-08-01 11:23:00,
2013-08-01 07:29:00,68.8,64.4,30.01,South,185,7.0,8.0,86,0.00,,,0.00,267,HR-IXPWINDi_r2_v1.2.,2013-08-01 11:29:00,
2013-08-01 07:34:00,69.1,64.7,30.01,South,186,5.0,8.0,86,0.00,,,0.00,237,HR-IXPWINDi_r2_v1.2.,2013-08-01 11:34:00,
2013-08-01 07:39:00,69.0,64.6,30.01,SSW,205,6.0,8.0,86,0.00,,,0.00,156,HR-IXPWINDi_r2_v1.2.,2013-08-01 11:39:00,
2013-08-01 07:44:00,68.8,64.4,30.01,South,188,7.0,8.0,86,0.00,,,0.00,320,HR-IXPWINDi_r2_v1.2.,2013-08-01 11:44:00,
2013-08-01 07:49:00,69.0,64.9,30.01,South,190,5.0,8.0,87,0.00,,,0.00,332,HR-IXPWINDi_r2_v1.2.,2013-08-01 11:49:00,
2013-08-01 07:55:00,69.1,64.7,30.00,South,188,6.0,7.0,86,0.00,,,0.00,197,HR-IXPWINDi_r2_v1.2.,2013-08-01 11:55:00,
2013-08-01 08:00:00,69.3,65.2,30.01,SSW,194,5.0,7.0,87,0.00,,,0.00,352,HR-IXPWINDi_r2_v1.2.,2013-08-01 12:00:00,
2013-08-01 08:05:00,69.4,65.0,30.01,South,178,5.0,7.0,86,0.00,,,0.00,371,HR-IXPWINDi_r2_v1.2.,2013-08-01 12:05:00,
2013-08-01 08:10:00,69.6,65.2,30.00,South,191,5.0,7.0,86,0.00,,,0.00,392,HR-IXPWINDi_r2_v1.2.,2013-08-01 12:10:00,
2013-08-01 08:15:00,69.8,65.4,30.00,South,190,5.0,7.0,86,0.00,,,0.00,408,HR-IXPWINDi_r2_v1.2.,2013-08-01 12:15:00,
2013-08-01 08:20:00,70.1,65.3,30.00,South,189,6.0,7.0,85,0.00,,,0.00,422,HR-IXPWINDi_r2_v1.2.,2013-08-01 12:20:00,
2013-08-01 08:26:00,70.1,65.3,30.01,SSW,194,6.0,8.0,85,0.00,,,0.00,432,HR-IXPWINDi_r2_v1.2.,2013-08-01 12:26:00,
2013-08-01 08:31:00,70.2,65.4,30.01,South,187,6.0,9.0,85,0.00,,,0.00,450,HR-IXPWINDi_r2_v1.2.,2013-08-01 12:31:00,
2013-08-01 08:36:00,70.4,65.6,30.01,South,189,5.0,9.0,85,0.00,,,0.00,464,HR-IXPWINDi_r2_v1.2.,2013-08-01 12:36:00,
2013-08-01 08:41:00,70.6,65.5,30.00,South,180,4.0,8.0,84,0.00,,,0.00,480,HR-IXPWINDi_r2_v1.2.,2013-08-01 12:41:00,
2013-08-01 08:47:00,70.9,65.8,30.00,SSE,148,2.0,7.0,84,0.00,,,0.00,497,HR-IXPWINDi_r2_v1.2.,2013-08-01 12:47:00,
2013-08-01 08:52:00,71.1,66.3,30.00,SSE,164,1.0,7.0,85,0.00,,,0.00,513,HR-IXPWINDi_r2_v1.2.,2013-08-01 12:52:00,
2013-08-01 08:57:00,71.3,66.2,30.00,SSW,194,2.0,4.0,84,0.00,,,0.00,527,HR-IXPWINDi_r2_v1.2.,2013-08-01 12:57:00,
2013-08-01 09:02:00,71.3,66.2,30.00,SE,144,1.0,4.0,84,0.00,,,0.00,543,HR-IXPWINDi_r2_v1.2.,2013-08-01 13:02:00,
2013-08-01 09:07:00,71.7,66.5,30.00,SSE,150,3.0,5.0,84,0.00,,,0.00,559,HR-IXPWINDi_r2_v1.2.,2013-08-01 13:07:00,
2013-08-01 09:12:00,71.4,66.6,30.00,SSE,148,3.0,6.0,85,0.00,,,0.00,571,HR-IXPWINDi_r2_v1.2.,2013-08-01 13:12:00,
2013-08-01 09:18:00,71.4,66.6,30.00,SE,145,5.0,6.0,85,0.00,,,0.00,584,HR-IXPWINDi_r2_v1.2.,2013-08-01 13:18:00,
2013-08-01 09:23:00,71.4,66.3,29.99,SE,141,5.0,6.0,84,0.00,,,0.00,598,HR-IXPWINDi_r2_v1.2.,2013-08-01 13:23:00,
2013-08-01 09:28:00,71.5,66.7,29.99,SE,130,5.0,6.0,85,0.00,,,0.00,615,HR-IXPWINDi_r2_v1.2.,2013-08-01 13:28:00,
2013-08-01 09:33:00,71.7,66.5,29.99,SSE,151,2.0,6.0,84,0.00,,,0.00,628,HR-IXPWINDi_r2_v1.2.,2013-08-01 13:33:00,
2013-08-01 09:38:00,71.9,66.4,29.99,ESE,122,4.0,7.0,83,0.00,,,0.00,642,HR-IXPWINDi_r2_v1.2.,2013-08-01 13:38:00,
2013-08-01 09:43:00,71.9,66.7,29.98,South,173,2.0,7.0,84,0.00,,,0.00,652,HR-IXPWINDi_r2_v1.2.,2013-08-01 13:43:00,
2013-08-01 09:49:00,72.2,66.7,29.99,SSE,159,2.0,7.0,83,0.00,,,0.00,663,HR-IXPWINDi_r2_v1.2.,2013-08-01 13:49:00,
2013-08-01 09:54:00,71.8,66.3,29.99,SE,137,5.0,8.0,83,0.00,,,0.00,673,HR-IXPWINDi_r2_v1.2.,2013-08-01 13:54:00,
2013-08-01 09:59:00,71.8,66.3,29.99,SE,145,2.0,8.0,83,0.00,,,0.00,684,HR-IXPWINDi_r2_v1.2.,2013-08-01 13:59:00,
2013-08-01 10:04:00,72.1,66.6,29.98,SSE,165,1.0,8.0,83,0.00,,,0.00,696,HR-IXPWINDi_r2_v1.2.,2013-08-01 14:04:00,
2013-08-01 10:09:00,72.7,66.8,29.99,SSE,147,1.0,6.0,82,0.00,,,0.00,707,HR-IXPWINDi_r2_v1.2.,2013-08-01 14:09:00,
2013-08-01 10:14:00,73.0,67.5,29.99,SSE,153,4.0,7.0,83,0.00,,,0.00,715,HR-IXPWINDi_r2_v1.2.,2013-08-01 14:14:00,
2013-08-01 10:20:00,73.3,67.4,29.98,SE,138,5.0,7.0,82,0.00,,,0.00,726,HR-IXPWINDi_r2_v1.2.,2013-08-01 14:20:00,
2013-08-01 10:25:00,73.1,67.2,29.98,SSE,154,2.0,7.0,82,0.00,,,0.00,738,HR-IXPWINDi_r2_v1.2.,2013-08-01 14:25:00,
2013-08-01 10:30:00,72.7,66.8,29.98,South,169,3.0,8.0,82,0.00,,,0.00,747,HR-IXPWINDi_r2_v1.2.,2013-08-01 14:30:00,
2013-08-01 10:35:00,73.1,67.6,29.98,SE,126,3.0,8.0,83,0.00,,,0.00,758,HR-IXPWINDi_r2_v1.2.,2013-08-01 14:35:00,
2013-08-01 10:41:00,73.7,67.4,29.98,South,189,1.0,8.0,81,0.00,,,0.00,770,HR-IXPWINDi_r2_v1.2.,2013-08-01 14:41:00,
2013-08-01 10:46:00,74.6,68.0,29.98,SSW,209,1.0,5.0,80,0.00,,,0.00,779,HR-IXPWINDi_r2_v1.2.,2013-08-01 14:46:00,
2013-08-01 10:51:00,74.6,67.2,29.98,ESE,109,3.0,5.0,78,0.00,,,0.00,788,HR-IXPWINDi_r2_v1.2.,2013-08-01 14:51:00,
2013-08-01 10:56:00,74.5,66.8,29.98,SE,131,3.0,8.0,77,0.00,,,0.00,796,HR-IXPWINDi_r2_v1.2.,2013-08-01 14:56:00,
2013-08-01 11:01:00,75.3,67.5,29.98,East,88,2.0,8.0,77,0.00,,,0.00,807,HR-IXPWINDi_r2_v1.2.,2013-08-01 15:01:00,
2013-08-01 11:06:00,75.3,67.9,29.97,ESE,113,2.0,7.0,78,0.00,,,0.00,814,HR-IXPWINDi_r2_v1.2.,2013-08-01 15:06:00,
2013-08-01 11:12:00,75.6,68.2,29.97,SE,128,0.0,6.0,78,0.00,,,0.00,823,HR-IXPWINDi_r2_v1.2.,2013-08-01 15:12:00,
2013-08-01 11:17:00,75.5,68.1,29.97,SE,137,0.0,8.0,78,0.00,,,0.00,828,HR-IXPWINDi_r2_v1.2.,2013-08-01 15:17:00,
2013-08-01 11:22:00,76.5,68.3,29.97,SE,135,6.0,8.0,76,0.00,,,0.00,835,HR-IXPWINDi_r2_v1.2.,2013-08-01 15:22:00,
2013-08-01 11:27:00,75.8,67.6,29.97,SE,132,9.0,9.0,76,0.00,,,0.00,842,HR-IXPWINDi_r2_v1.2.,2013-08-01 15:27:00,
2013-08-01 11:32:00,74.8,68.2,29.96,SE,129,2.0,10.0,80,0.00,,,0.00,846,HR-IXPWINDi_r2_v1.2.,2013-08-01 15:32:00,
2013-08-01 11:38:00,75.3,68.3,29.96,SE,142,5.0,10.0,79,0.00,,,0.00,851,HR-IXPWINDi_r2_v1.2.,2013-08-01 15:38:00,
2013-08-01 11:43:00,75.5,67.7,29.96,SSE,154,6.0,9.0,77,0.00,,,0.00,853,HR-IXPWINDi_r2_v1.2.,2013-08-01 15:43:00,
2013-08-01 11:48:00,75.2,67.8,29.96,South,181,7.0,9.0,78,0.00,,,0.00,860,HR-IXPWINDi_r2_v1.2.,2013-08-01 15:48:00,
2013-08-01 11:54:00,74.9,67.9,29.96,WSW,254,3.0,11.0,79,0.00,,,0.00,861,HR-IXPWINDi_r2_v1.2.,2013-08-01 15:54:00,
2013-08-01 11:59:00,75.1,68.1,29.96,South,178,7.0,11.0,79,0.00,,,0.00,868,HR-IXPWINDi_r2_v1.2.,2013-08-01 15:59:00,
2013-08-01 12:04:00,74.8,68.2,29.95,SE,144,4.0,11.0,80,0.00,,,0.00,872,HR-IXPWINDi_r2_v1.2.,2013-08-01 16:04:00,
2013-08-01 12:09:00,75.5,68.5,29.95,West,265,1.0,11.0,79,0.00,,,0.00,872,HR-IXPWINDi_r2_v1.2.,2013-08-01 16:09:00,
2013-08-01 12:14:00,75.6,67.8,29.95,SE,130,2.0,9.0,77,0.00,,,0.00,870,HR-IXPWINDi_r2_v1.2.,2013-08-01 16:14:00,
2013-08-01 12:19:00,76.1,67.9,29.95,SSE,157,2.0,8.0,76,0.00,,,0.00,879,HR-IXPWINDi_r2_v1.2.,2013-08-01 16:19:00,
2013-08-01 12:24:00,75.7,67.2,29.95,East,80,2.0,13.0,75,0.00,,,0.00,881,HR-IXPWINDi_r2_v1.2.,2013-08-01 16:24:00,
2013-08-01 12:29:00,75.4,67.6,29.95,SSE,153,8.0,13.0,77,0.00,,,0.00,884,HR-IXPWINDi_r2_v1.2.,2013-08-01 16:29:00,
2013-08-01 12:34:00,75.2,67.8,29.95,SE,135,3.0,12.0,78,0.00,,,0.00,884,HR-IXPWINDi_r2_v1.2.,2013-08-01 16:34:00,
2013-08-01 12:39:00,75.6,68.2,29.94,East,90,5.0,12.0,78,0.00,,,0.00,888,HR-IXPWINDi_r2_v1.2.,2013-08-01 16:39:00,
2013-08-01 12:44:00,75.2,67.8,29.94,South,182,2.0,13.0,78,0.00,,,0.00,898,HR-IXPWINDi_r2_v1.2.,2013-08-01 16:44:00,
2013-08-01 12:49:00,75.1,67.7,29.94,East,95,6.0,14.0,78,0.00,,,0.00,833,HR-IXPWINDi_r2_v1.2.,2013-08-01 16:49:00,
2013-08-01 12:55:00,75.2,67.4,29.94,SE,143,3.0,14.0,77,0.00,,,0.00,914,HR-IXPWINDi_r2_v1.2.,2013-08-01 16:55:00,
2013-08-01 13:00:00,75.2,67.4,29.94,South,178,5.0,14.0,77,0.00,,,0.00,928,HR-IXPWINDi_r2_v1.2.,2013-08-01 17:00:00,
2013-08-01 13:05:00,75.3,67.5,29.94,SSW,202,1.0,14.0,77,0.00,,,0.00,582,HR-IXPWINDi_r2_v1.2.,2013-08-01 17:05:00,
2013-08-01 13:10:00,75.3,67.2,29.94,SSE,150,4.0,13.0,76,0.00,,,0.00,974,HR-IXPWINDi_r2_v1.2.,2013-08-01 17:10:00,
2013-08-01 13:15:00,75.6,67.8,29.93,South,172,5.0,14.0,77,0.00,,,0.00,870,HR-IXPWINDi_r2_v1.2.,2013-08-01 17:15:00,
2013-08-01 13:21:00,75.7,66.8,29.93,SSE,168,5.0,14.0,74,0.00,,,0.00,930,HR-IXPWINDi_r2_v1.2.,2013-08-01 17:21:00,
2013-08-01 13:26:00,75.5,66.6,29.93,ESE,109,10.0,16.0,74,0.00,,,0.00,879,HR-IXPWINDi_r2_v1.2.,2013-08-01 17:26:00,
2013-08-01 13:32:00,74.9,66.4,29.93,ESE,106,9.0,16.0,75,0.00,,,0.00,304,HR-IXPWINDi_r2_v1.2.,2013-08-01 17:32:00,
2013-08-01 13:37:00,74.6,66.5,29.93,SE,138,5.0,14.0,76,0.00,,,0.00,619,HR-IXPWINDi_r2_v1.2.,2013-08-01 17:37:00,
2013-08-01 13:42:00,74.8,66.7,29.93,South,175,3.0,14.0,76,0.00,,,0.00,714,HR-IXPWINDi_r2_v1.2.,2013-08-01 17:42:00,
2013-08-01 13:47:00,74.9,66.4,29.93,SE,144,5.0,14.0,75,0.00,,,0.00,1034,HR-IXPWINDi_r2_v1.2.,2013-08-01 17:47:00,
2013-08-01 13:52:00,75.5,67.0,29.92,SE,132,3.0,13.0,75,0.00,,,0.00,974,HR-IXPWINDi_r2_v1.2.,2013-08-01 17:52:00,
2013-08-01 13:57:00,75.6,66.7,29.93,SE,136,10.0,13.0,74,0.00,,,0.00,1060,HR-IXPWINDi_r2_v1.2.,2013-08-01 17:57:00,
2013-08-01 14:02:00,75.5,66.6,29.92,SSE,150,9.0,16.0,74,0.00,,,0.00,729,HR-IXPWINDi_r2_v1.2.,2013-08-01 18:02:00,
2013-08-01 14:08:00,74.8,66.3,29.92,SSE,165,6.0,19.0,75,0.00,,,0.00,297,HR-IXPWINDi_r2_v1.2.,2013-08-01 18:08:00,
2013-08-01 14:13:00,74.8,66.7,29.92,SE,140,9.0,19.0,76,0.00,,,0.00,533,HR-IXPWINDi_r2_v1.2.,2013-08-01 18:13:00,
2013-08-01 14:18:00,75.0,66.5,29.91,SE,138,11.0,15.0,75,0.00,,,0.00,325,HR-IXPWINDi_r2_v1.2.,2013-08-01 18:18:00,
2013-08-01 14:23:00,74.3,66.2,29.91,South,177,5.0,15.0,76,0.00,,,0.00,262,HR-IXPWINDi_r2_v1.2.,2013-08-01 18:23:00,
2013-08-01 14:29:00,74.1,66.0,29.91,SSW,197,3.0,21.0,76,0.00,,,0.00,359,HR-IXPWINDi_r2_v1.2.,2013-08-01 18:29:00,
2013-08-01 14:34:00,74.0,65.9,29.91,SSW,193,3.0,21.0,76,0.00,,,0.00,243,HR-IXPWINDi_r2_v1.2.,2013-08-01 18:34:00,
2013-08-01 14:39:00,73.8,66.1,29.91,East,101,14.0,17.0,77,0.00,,,0.00,202,HR-IXPWINDi_r2_v1.2.,2013-08-01 18:39:00,
2013-08-01 14:44:00,73.6,66.3,29.91,SSE,149,4.0,14.0,78,0.00,,,0.00,359,HR-IXPWINDi_r2_v1.2.,2013-08-01 18:44:00,
2013-08-01 14:49:00,73.9,66.5,29.90,SE,125,14.0,14.0,78,0.00,,,0.00,287,HR-IXPWINDi_r2_v1.2.,2013-08-01 18:49:00,
2013-08-01 14:54:00,73.9,66.5,29.90,SSE,159,6.0,15.0,78,0.00,,,0.00,439,HR-IXPWINDi_r2_v1.2.,2013-08-01 18:54:00,
2013-08-01 14:59:00,73.8,66.5,29.90,ESE,119,5.0,16.0,78,0.00,,,0.00,142,HR-IXPWINDi_r2_v1.2.,2013-08-01 18:59:00,
2013-08-01 15:05:00,73.5,66.2,29.90,SE,136,3.0,16.0,78,0.00,,,0.00,120,HR-IXPWINDi_r2_v1.2.,2013-08-01 19:05:00,
2013-08-01 15:10:00,73.2,66.2,29.90,SSE,147,5.0,16.0,79,0.00,,,0.00,169,HR-IXPWINDi_r2_v1.2.,2013-08-01 19:10:00,
2013-08-01 15:15:00,73.3,66.7,29.90,SSE,153,7.0,16.0,80,0.00,,,0.00,492,HR-IXPWINDi_r2_v1.2.,2013-08-01 19:15:00,
2013-08-01 15:20:00,73.6,66.6,29.90,South,171,8.0,15.0,79,0.00,,,0.00,213,HR-IXPWINDi_r2_v1.2.,2013-08-01 19:20:00,
2013-08-01 15:25:00,73.6,66.6,29.90,ESE,114,7.0,15.0,79,0.00,,,0.00,151,HR-IXPWINDi_r2_v1.2.,2013-08-01 19:25:00,
2013-08-01 15:31:00,73.6,66.6,29.90,ESE,116,7.0,15.0,79,0.00,,,0.00,128,HR-IXPWINDi_r2_v1.2.,2013-08-01 19:31:00,
2013-08-01 15:36:00,73.5,66.2,29.90,SE,136,12.0,14.0,78,0.00,,,0.00,139,HR-IXPWINDi_r2_v1.2.,2013-08-01 19:36:00,
2013-08-01 15:42:00,74.0,65.9,29.90,SE,131,9.0,14.0,76,0.00,,,0.00,132,HR-IXPWINDi_r2_v1.2.,2013-08-01 19:42:00,
2013-08-01 15:47:00,74.1,66.4,29.90,SSE,166,8.0,14.0,77,0.00,,,0.00,104,HR-IXPWINDi_r2_v1.2.,2013-08-01 19:47:00,
2013-08-01 15:52:00,73.9,66.2,29.90,SE,126,11.0,14.0,77,0.00,,,0.00,88,HR-IXPWINDi_r2_v1.2.,2013-08-01 19:52:00,
2013-08-01 15:57:00,73.9,65.8,29.90,South,175,7.0,13.0,76,0.00,,,0.00,111,HR-IXPWINDi_r2_v1.2.,2013-08-01 19:57:00,
2013-08-01 16:02:00,73.9,66.2,29.90,South,169,5.0,14.0,77,0.00,,,0.00,146,HR-IXPWINDi_r2_v1.2.,2013-08-01 20:02:00,
2013-08-01 16:07:00,74.2,66.1,29.90,SE,146,10.0,14.0,76,0.00,,,0.00,181,HR-IXPWINDi_r2_v1.2.,2013-08-01 20:07:00,
2013-08-01 16:13:00,74.2,66.5,29.90,South,187,5.0,13.0,77,0.00,,,0.00,149,HR-IXPWINDi_r2_v1.2.,2013-08-01 20:13:00,
2013-08-01 16:18:00,74.0,67.0,29.90,SSW,209,4.0,13.0,79,0.00,,,0.00,132,HR-IXPWINDi_r2_v1.2.,2013-08-01 20:18:00,
2013-08-01 16:23:00,74.2,66.8,29.90,SSW,201,12.0,14.0,78,0.00,,,0.00,144,HR-IXPWINDi_r2_v1.2.,2013-08-01 20:23:00,
2013-08-01 16:28:00,75.3,66.0,29.90,South,171,14.0,18.0,73,0.00,,,0.00,114,HR-IXPWINDi_r2_v1.2.,2013-08-01 20:28:00,
2013-08-01 16:33:00,75.6,66.3,29.90,SSW,197,14.0,18.0,73,0.00,,,0.00,135,HR-IXPWINDi_r2_v1.2.,2013-08-01 20:33:00,
2013-08-01 16:38:00,75.6,65.9,29.90,SSW,200,14.0,18.0,72,0.00,,,0.00,134,HR-IXPWINDi_r2_v1.2.,2013-08-01 20:38:00,
2013-08-01 16:44:00,75.7,65.6,29.90,SSW,207,16.0,19.0,71,0.00,,,0.00,135,HR-IXPWINDi_r2_v1.2.,2013-08-01 20:44:00,
2013-08-01 16:49:00,75.7,65.6,29.90,South,178,16.0,19.0,71,0.00,,,0.00,135,HR-IXPWINDi_r2_v1.2.,2013-08-01 20:49:00,
2013-08-01 16:54:00,75.8,65.7,29.90,South,190,18.0,20.0,71,0.00,,,0.00,151,HR-IXPWINDi_r2_v1.2.,2013-08-01 20:54:00,
2013-08-01 16:59:00,75.8,64.8,29.90,SSW,196,19.0,21.0,69,0.00,,,0.00,142,HR-IXPWINDi_r2_v1.2.,2013-08-01 20:59:00,
2013-08-01 17:04:00,75.9,64.9,29.90,SSW,204,17.0,21.0,69,0.00,,,0.00,135,HR-IXPWINDi_r2_v1.2.,2013-08-01 21:04:00,
2013-08-01 17:10:00,75.9,64.9,29.90,SSW,198,17.0,21.0,69,0.00,,,0.00,121,HR-IXPWINDi_r2_v1.2.,2013-08-01 21:10:00,
2013-08-01 17:15:00,75.8,64.8,29.90,SSW,197,18.0,21.0,69,0.00,,,0.00,118,HR-IXPWINDi_r2_v1.2.,2013-08-01 21:15:00,
2013-08-01 17:20:00,75.8,64.4,29.90,SSW,194,16.0,22.0,68,0.00,,,0.00,127,HR-IXPWINDi_r2_v1.2.,2013-08-01 21:20:00,
2013-08-01 17:25:00,75.6,64.7,29.90,South,190,18.0,23.0,69,0.00,,,0.00,142,HR-IXPWINDi_r2_v1.2.,2013-08-01 21:25:00,
2013-08-01 17:31:00,75.5,64.6,29.90,South,181,21.0,24.0,69,0.00,,,0.00,142,HR-IXPWINDi_r2_v1.2.,2013-08-01 21:31:00,
2013-08-01 17:36:00,75.3,64.8,29.90,South,187,18.0,24.0,70,0.00,,,0.00,151,HR-IXPWINDi_r2_v1.2.,2013-08-01 21:36:00,
2013-08-01 17:41:00,75.2,65.1,29.90,South,187,19.0,22.0,71,0.00,,,0.00,153,HR-IXPWINDi_r2_v1.2.,2013-08-01 21:41:00,
2013-08-01 17:46:00,75.1,64.6,29.90,SSW,198,17.0,22.0,70,0.00,,,0.00,146,HR-IXPWINDi_r2_v1.2.,2013-08-01 21:46:00,
2013-08-01 17:51:00,75.0,65.3,29.90,South,184,17.0,21.0,72,0.00,,,0.00,134,HR-IXPWINDi_r2_v1.2.,2013-08-01 21:51:00,
2013-08-01 17:56:00,74.9,64.8,29.90,South,173,17.0,22.0,71,0.00,,,0.00,105,HR-IXPWINDi_r2_v1.2.,2013-08-01 21:56:00,
2013-08-01 18:01:00,74.7,65.0,29.90,South,191,17.0,22.0,72,0.00,,,0.00,86,HR-IXPWINDi_r2_v1.2.,2013-08-01 22:01:00,
2013-08-01 18:07:00,74.6,65.3,29.90,SSW,204,14.0,18.0,73,0.00,,,0.00,63,HR-IXPWINDi_r2_v1.2.,2013-08-01 22:07:00,
2013-08-01 18:12:00,74.5,64.8,29.90,SSW,192,16.0,18.0,72,0.00,,,0.00,58,HR-IXPWINDi_r2_v1.2.,2013-08-01 22:12:00,
2013-08-01 18:17:00,74.4,65.1,29.90,SSW,192,15.0,18.0,73,0.00,,,0.00,53,HR-IXPWINDi_r2_v1.2.,2013-08-01 22:17:00,
2013-08-01 18:22:00,74.2,64.9,29.90,SSW,195,11.0,18.0,73,0.00,,,0.00,47,HR-IXPWINDi_r2_v1.2.,2013-08-01 22:22:00,
2013-08-01 18:28:00,74.1,65.2,29.91,South,189,13.0,17.0,74,0.00,,,0.00,42,HR-IXPWINDi_r2_v1.2.,2013-08-01 22:28:00,
2013-08-01 18:33:00,73.9,65.0,29.91,SSW,192,15.0,17.0,74,0.00,,,0.00,42,HR-IXPWINDi_r2_v1.2.,2013-08-01 22:33:00,
2013-08-01 18:38:00,73.9,64.6,29.91,SSW,201,17.0,18.0,73,0.00,,,0.00,44,HR-IXPWINDi_r2_v1.2.,2013-08-01 22:38:00,
2013-08-01 18:43:00,73.8,63.3,29.90,SSW,205,15.0,21.0,70,0.00,,,0.00,49,HR-IXPWINDi_r2_v1.2.,2013-08-01 22:43:00,
2013-08-01 18:48:00,73.8,63.3,29.90,SSW,193,16.0,21.0,70,0.00,,,0.00,46,HR-IXPWINDi_r2_v1.2.,2013-08-01 22:48:00,
2013-08-01 18:53:00,73.8,62.9,29.90,South,189,14.0,20.0,69,0.00,,,0.00,39,HR-IXPWINDi_r2_v1.2.,2013-08-01 22:53:00,
2013-08-01 18:58:00,73.7,63.7,29.90,SSW,196,15.0,20.0,71,0.00,,,0.00,26,HR-IXPWINDi_r2_v1.2.,2013-08-01 22:58:00,
2013-08-01 19:03:00,73.5,64.3,29.91,SSW,198,12.0,20.0,73,0.00,,,0.00,16,HR-IXPWINDi_r2_v1.2.,2013-08-01 23:03:00,
2013-08-01 19:08:00,73.4,63.8,29.91,South,190,18.0,19.0,72,0.00,,,0.00,11,HR-IXPWINDi_r2_v1.2.,2013-08-01 23:08:00,
2013-08-01 19:13:00,73.3,63.3,29.90,SSW,196,16.0,21.0,71,0.00,,,0.00,9,HR-IXPWINDi_r2_v1.2.,2013-08-01 23:13:00,
2013-08-01 19:18:00,73.2,63.2,29.90,South,184,19.0,21.0,71,0.00,,,0.00,9,HR-IXPWINDi_r2_v1.2.,2013-08-01 23:18:00,
2013-08-01 19:24:00,73.1,63.1,29.90,SSW,194,16.0,21.0,71,0.00,,,0.00,7,HR-IXPWINDi_r2_v1.2.,2013-08-01 23:24:00,
2013-08-01 19:29:00,72.8,62.8,29.90,SSW,200,16.0,22.0,71,0.00,,,0.00,5,HR-IXPWINDi_r2_v1.2.,2013-08-01 23:29:00,
2013-08-01 19:34:00,72.6,62.6,29.91,SSW,205,15.0,22.0,71,0.00,,,0.00,0,HR-IXPWINDi_r2_v1.2.,2013-08-01 23:34:00,
2013-08-01 19:39:00,72.5,62.5,29.91,SSW,196,13.0,20.0,71,0.00,,,0.00,0,HR-IXPWINDi_r2_v1.2.,2013-08-01 23:39:00,
2013-08-01 19:45:00,72.4,63.2,29.91,South,186,10.0,18.0,73,0.00,,,0.00,0,HR-IXPWINDi_r2_v1.2.,2013-08-01 23:45:00,
2013-08-01 19:50:00,72.2,63.0,29.91,South,188,12.0,16.0,73,0.00,,,0.00,0,HR-IXPWINDi_r2_v1.2.,2013-08-01 23:50:00,
2013-08-01 19:55:00,72.1,63.7,29.91,South,184,12.0,15.0,75,0.00,,,0.00,0,HR-IXPWINDi_r2_v1.2.,2013-08-01 23:55:00,
2013-08-01 20:00:00,71.9,63.9,29.91,SSW,207,11.0,15.0,76,0.00,,,0.00,0,HR-IXPWINDi_r2_v1.2.,2013-08-02 00:00:00,
2013-08-01 20:06:00,71.7,64.0,29.91,SSW,198,9.0,15.0,77,0.00,,,0.00,0,HR-IXPWINDi_r2_v1.2.,2013-08-02 00:06:00,
2013-08-01 20:11:00,71.6,63.9,29.91,SSW,197,8.0,13.0,77,0.00,,,0.00,0,HR-IXPWINDi_r2_v1.2.,2013-08-02 00:11:00,
2013-08-01 20:16:00,71.5,63.8,29.91,SSW,194,9.0,13.0,77,0.00,,,0.00,0,HR-IXPWINDi_r2_v1.2.,2013-08-02 00:16:00,
2013-08-01 20:21:00,71.5,63.8,29.91,SSW,194,7.0,13.0,77,0.00,,,0.00,0,HR-IXPWINDi_r2_v1.2.,2013-08-02 00:21:00,
2013-08-01 20:26:00,71.5,63.8,29.91,South,188,10.0,12.0,77,0.00,,,0.00,0,HR-IXPWINDi_r2_v1.2.,2013-08-02 00:26:00,
2013-08-01 20:32:00,71.4,64.1,29.91,SSW,197,7.0,11.0,78,0.00,,,0.00,0,HR-IXPWINDi_r2_v1.2.,2013-08-02 00:32:00,
2013-08-01 20:37:00,71.4,64.5,29.91,South,188,8.0,11.0,79,0.00,,,0.00,0,HR-IXPWINDi_r2_v1.2.,2013-08-02 00:37:00,
2013-08-01 20:42:00,71.3,64.4,29.91,SSW,198,6.0,10.0,79,0.00,,,0.00,0,HR-IXPWINDi_r2_v1.2.,2013-08-02 00:42:00,
2013-08-01 20:47:00,71.2,64.7,29.91,SSW,194,5.0,10.0,80,0.00,,,0.00,0,HR-IXPWINDi_r2_v1.2.,2013-08-02 00:47:00,
2013-08-01 20:52:00,71.0,64.5,29.91,SSW,196,5.0,8.0,80,0.00,,,0.00,0,HR-IXPWINDi_r2_v1.2.,2013-08-02 00:52:00,
2013-08-01 20:58:00,71.0,64.5,29.91,SSW,193,8.0,9.0,80,0.00,,,0.00,0,HR-IXPWINDi_r2_v1.2.,2013-08-02 00:58:00,
2013-08-01 21:03:00,71.1,63.8,29.91,South,184,11.0,11.0,78,0.00,,,0.00,0,HR-IXPWINDi_r2_v1.2.,2013-08-02 01:03:00,
2013-08-01 21:08:00,71.1,64.6,29.91,SSW,192,7.0,11.0,80,0.00,,,0.00,0,HR-IXPWINDi_r2_v1.2.,2013-08-02 01:08:00,
2013-08-01 21:13:00,70.8,64.6,29.91,SSW,209,7.0,11.0,81,0.00,,,0.00,0,HR-IXPWINDi_r2_v1.2.,2013-08-02 01:13:00,
2013-08-01 21:18:00,70.7,64.5,29.91,South,181,6.0,10.0,81,0.00,,,0.00,0,HR-IXPWINDi_r2_v1.2.,2013-08-02 01:18:00,
2013-08-01 21:23:00,70.6,64.4,29.91,South,177,9.0,10.0,81,0.00,,,0.00,0,HR-IXPWINDi_r2_v1.2.,2013-08-02 01:23:00,
2013-08-01 21:29:00,70.6,64.4,29.91,South,188,5.0,11.0,81,0.00,,,0.00,0,HR-IXPWINDi_r2_v1.2.,2013-08-02 01:29:00,
2013-08-01 21:34:00,70.6,64.1,29.91,SSW,198,8.0,11.0,80,0.00,,,0.00,0,HR-IXPWINDi_r2_v1.2.,2013-08-02 01:34:00,
2013-08-01 21:39:00,70.7,64.2,29.91,SSW,194,7.0,10.0,80,0.00,,,0.00,0,HR-IXPWINDi_r2_v1.2.,2013-08-02 01:39:00,
2013-08-01 21:44:00,70.7,64.5,29.91,South,190,9.0,10.0,81,0.00,,,0.00,0,HR-IXPWINDi_r2_v1.2.,2013-08-02 01:44:00,
2013-08-01 21:49:00,70.5,64.7,29.91,South,186,8.0,10.0,82,0.00,,,0.00,0,HR-IXPWINDi_r2_v1.2.,2013-08-02 01:49:00,
2013-08-01 21:55:00,70.5,64.7,29.90,SSW,211,4.0,10.0,82,0.00,,,0.00,0,HR-IXPWINDi_r2_v1.2.,2013-08-02 01:55:00,
2013-08-01 22:00:00,70.5,64.3,29.90,South,185,5.0,9.0,81,0.00,,,0.00,0,HR-IXPWINDi_r2_v1.2.,2013-08-02 02:00:00,
2013-08-01 22:05:00,70.5,64.7,29.90,South,176,4.0,9.0,82,0.00,,,0.00,0,HR-IXPWINDi_r2_v1.2.,2013-08-02 02:05:00,
2013-08-01 22:10:00,70.3,64.8,29.90,SSW,200,4.0,8.0,83,0.00,,,0.00,0,HR-IXPWINDi_r2_v1.2.,2013-08-02 02:10:00,
2013-08-01 22:16:00,70.1,64.6,29.90,SSW,192,7.0,9.0,83,0.00,,,0.00,0,HR-IXPWINDi_r2_v1.2.,2013-08-02 02:16:00,
2013-08-01 22:21:00,70.1,64.6,29.90,SSW,195,7.0,9.0,83,0.00,,,0.00,0,HR-IXPWINDi_r2_v1.2.,2013-08-02 02:21:00,
2013-08-01 22:26:00,70.1,64.6,29.90,South,190,4.0,10.0,83,0.00,,,0.00,0,HR-IXPWINDi_r2_v1.2.,2013-08-02 02:26:00,
2013-08-01 22:31:00,70.0,64.2,29.90,South,182,6.0,10.0,82,0.00,,,0.00,0,HR-IXPWINDi_r2_v1.2.,2013-08-02 02:31:00,
2013-08-01 22:37:00,70.1,63.9,29.90,SSW,198,7.0,11.0,81,0.00,,,0.00,0,HR-IXPWINDi_r2_v1.2.,2013-08-02 02:37:00,
2013-08-01 22:42:00,70.1,63.9,29.90,South,190,5.0,11.0,81,0.00,,,0.00,0,HR-IXPWINDi_r2_v1.2.,2013-08-02 02:42:00,
2013-08-01 22:47:00,70.0,63.8,29.89,South,186,7.0,11.0,81,0.00,,,0.00,0,HR-IXPWINDi_r2_v1.2.,2013-08-02 02:47:00,
2013-08-01 22:52:00,70.0,63.8,29.89,South,188,4.0,9.0,81,0.00,,,0.00,0,HR-IXPWINDi_r2_v1.2.,2013-08-02 02:52:00,
2013-08-01 22:57:00,69.8,64.0,29.89,South,184,7.0,9.0,82,0.00,,,0.00,0,HR-IXPWINDi_r2_v1.2.,2013-08-02 02:57:00,
2013-08-01 23:02:00,69.6,64.1,29.89,South,173,7.0,9.0,83,0.00,,,0.00,0,HR-IXPWINDi_r2_v1.2.,2013-08-02 03:02:00,
2013-08-01 23:07:00,69.5,64.7,29.89,South,189,7.0,9.0,85,0.00,,,0.00,0,HR-IXPWINDi_r2_v1.2.,2013-08-02 03:07:00,
2013-08-01 23:13:00,69.5,64.7,29.89,SSW,192,7.0,10.0,85,0.00,,,0.00,0,HR-IXPWINDi_r2_v1.2.,2013-08-02 03:13:00,
2013-08-01 23:18:00,69.4,64.6,29.89,South,184,11.0,11.0,85,0.00,,,0.00,0,HR-IXPWINDi_r2_v1.2.,2013-08-02 03:18:00,
2013-08-01 23:23:00,69.5,65.1,29.89,South,174,8.0,15.0,86,0.00,,,0.00,0,HR-IXPWINDi_r2_v1.2.,2013-08-02 03:23:00,
2013-08-01 23:28:00,69.5,65.1,29.89,South,181,6.0,15.0,86,0.00,,,0.00,0,HR-IXPWINDi_r2_v1.2.,2013-08-02 03:28:00,
2013-08-01 23:33:00,69.5,64.7,29.89,SSW,196,12.0,18.0,85,0.00,,,0.00,0,HR-IXPWINDi_r2_v1.2.,2013-08-02 03:33:00,
2013-08-01 23:38:00,69.4,63.6,29.88,SSW,198,14.0,18.0,82,0.00,,,0.00,0,HR-IXPWINDi_r2_v1.2.,2013-08-02 03:38:00,
2013-08-01 23:43:00,69.6,64.1,29.88,SSW,209,15.0,18.0,83,0.00,,,0.00,0,HR-IXPWINDi_r2_v1.2.,2013-08-02 03:43:00,
2013-08-01 23:49:00,69.4,62.9,29.88,SSW,201,18.0,22.0,80,0.00,,,0.00,0,HR-IXPWINDi_r2_v1.2.,2013-08-02 03:49:00,
2013-08-01 23:54:00,69.3,63.2,29.88,South,178,19.0,22.0,81,0.00,,,0.00,0,HR-IXPWINDi_r2_v1.2.,2013-08-02 03:54:00,
2013-08-01 23:59:00,68.9,63.1,29.88,SSW,193,12.0,20.0,82,0.00,,,0.00,0,HR-IXPWINDi_r2_v1.2.,2013-08-02 03:59:00,